Regional Weather Roundup
Issued by NWS

Home | Current Version | Previous Version | Graphics & Text | Print | Product List | Glossary On
Versions: 1 2 3 4 5 6 7 8 9 10 11 12 13 14 15 16 17 18 19 20 21 22 23 24 25 26 27 28 29 30 31 32 33 34 35 36 37 38 39 40 41 42 43 44 45 46 47 48 49 50
000
ASUS43 KOAX 221102
RWRNE

WEATHER ROUNDUP FOR NEBRASKA
NATIONAL WEATHER SERVICE OMAHA NE
500 AM CST WED NOV 22 2017

NOTES: SATELLITE DATA IS BEING USED TO AUGMENT CLOUD COVER ABOVE
       12000 FEET.
       "FAIR" INDICATES FEW OR NO CLOUDS BELOW 12,000 FEET WITH NO
       SIGNIFICANT WEATHER AND/OR OBSTRUCTIONS TO VISIBILITY.


NEZ001>004-019>022-054>056-221200-
NEBRASKA PANHANDLE

CITY           SKY/WX    TMP DP  RH WIND       PRES   REMARKS
SCOTTSBLUFF    CLOUDY    33  26  75 CALM      30.17F
ALLIANCE       CLOUDY    26  25  96 SW3       30.13F
CHADRON        CLOUDY    35  31  85 SW3       30.12S
GORDON         FAIR      33  28  80 W6        30.10F WCI  28
KIMBALL        CLOUDY    39  33  78 W12       30.19F WCI  32
SIDNEY         CLOUDY    34  30  85 W6        30.18F WCI  29
$$

NEZ057>060-069>072-079>082-221200-
SOUTHWEST NEBRASKA

CITY           SKY/WX    TMP DP  RH WIND       PRES   REMARKS
NORTH PLATTE   CLOUDY    31  18  58 S8        30.20F WCI  23
IMPERIAL       CLOUDY    32  26  78 S7        30.21F WCI  26
LEXINGTON      CLOUDY    28  14  56 S8        30.27F WCI  20
MCCOOK         CLOUDY    25  18  74 SE5       30.26F WCI  19
OGALLALA       CLOUDY    27  24  87 CALM      30.18F
$$

NEZ005>010-023>029-035>040-094-221200-
NORTH CENTRAL NEBRASKA

CITY           SKY/WX    TMP DP  RH WIND       PRES   REMARKS
VALENTINE      CLOUDY    24  18  77 CALM      30.15F
AINSWORTH      CLOUDY    28  17  62 S14       30.16F WCI  17
BROKEN BOW     CLOUDY    26  12  55 S8        30.23F WCI  18
O`NEILL        CLOUDY    18  14  86 SE6       30.25F WCI   9
ORD            CLOUDY    19  15  84 SE5       30.27F WCI  12
THEDFORD       PTCLDY    31  18  58 SW7       30.19S WCI  24
$$

NEZ041-046>049-061>064-073>077-083>087-221200-
SOUTH CENTRAL NEBRASKA

CITY           SKY/WX    TMP DP  RH WIND       PRES   REMARKS
GRAND ISLAND   CLOUDY    20  15  81 S6        30.34F WCI  12
AURORA         CLOUDY    17  11  79 CALM      30.34F
HASTINGS       CLOUDY    19  11  70 S5        30.33F WCI  12
HEBRON         CLOUDY    14  11  85 CALM      30.40F
HOLDREGE       CLOUDY    25  13  62 S8        30.29F WCI  16
KEARNEY        CLOUDY    22  14  71 S7        30.31F WCI  13
YORK           CLOUDY    14  12  92 CALM      30.37F
$$

NEZ011>018-030>034-042>045-221200-
NORTHEAST NEBRASKA

CITY           SKY/WX    TMP DP  RH WIND       PRES   REMARKS
NORFOLK        CLOUDY    11   8  88 SW8       30.33F WCI  -1
ALBION         CLOUDY    14   9  80 CALM      30.31F
BLAIR          CLOUDY    16  11  80 CALM      30.36F
COLUMBUS       CLOUDY    16  11  80 W8        30.38S WCI   5
FREMONT        CLOUDY    13  10  85 NW3       30.37F
TEKAMAH        CLOUDY     8   4  83 SW5       30.39F WCI   0
WAYNE          CLOUDY     9   7  90 S3        30.34F
$$

NEZ050>053-065>068-078-088>093-221200-
SOUTHEAST NEBRASKA

CITY           SKY/WX    TMP DP  RH WIND       PRES   REMARKS
LINCOLN        CLOUDY    15  10  80 MISG      30.41F
OMAHA EPPLEY   CLOUDY    16   9  74 CALM      30.40S
BEATRICE       CLOUDY    15  11  85 CALM      30.40S
FALLS CITY     CLOUDY    15  10  80 W5        30.42S WCI   8
NEBRASKA CITY  CLOUDY    15  12  89 W5        30.40R WCI   7
PLATTSMOUTH    CLOUDY    15  11  83 W5        30.40R WCI   8
$$

NEZ044-045-051>053-067-221200-
OMAHA AREA

CITY           SKY/WX    TMP DP  RH WIND       PRES   REMARKS
OMAHA EPPLEY   CLOUDY    16   9  74 CALM      30.40S
BLAIR          CLOUDY    16  11  80 CALM      30.36F
FREMONT        CLOUDY    13  10  85 NW3       30.37F
MILLARD        CLOUDY    19  13  77 CALM      30.40S
OFFUTT AFB     CLOUDY    15   9  76 CALM      30.39S
PLATTSMOUTH    CLOUDY    15  11  83 W5        30.40R WCI   8
WAHOO          FAIR      13  10  85 SW3       30.38F
$$




USA.gov is the U.S. government's official web portal to all federal, state and local government web resources and services.